| time (UTC) | temp F | wind direction | speed MPH | gust MPH | rain 1hr in | rain 24hr in | rain mn in | humidity % | barometer mb |
| 20260506035825 | 45 | 265 | 4.0 | 7.0 | 0.00 | 0.02 | 0.02 | 75 | 1002.5 |
| 20260506034310 | 45 | 207 | 2.0 | 6.0 | 0.00 | 0.02 | 0.02 | 76 | 1002.4 |
| 20260506032811 | 45 | 197 | 1.0 | 8.0 | 0.02 | 0.02 | 0.02 | 77 | 1002.0 |
| 20260506024324 | 47 | 219 | 3.0 | 5.0 | 0.02 | 0.02 | 0.02 | 80 | 1001.5 |
| 20260506022823 | 48 | 203 | 1.0 | 6.0 | 0.00 | 0.00 | 0.00 | 74 | 1001.3 |
| 20260506021322 | 50 | 275 | 1.0 | 4.0 | 0.00 | 0.00 | 0.00 | 67 | 1000.9 |
| 20260506012814 | 51 | 269 | 3.0 | 7.0 | 0.00 | 0.00 | 0.00 | 66 | 1000.6 |
| 20260506011315 | 51 | 269 | 1.0 | 8.0 | 0.00 | 0.00 | 0.00 | 66 | 1000.5 |
| 20260506005815 | 51 | 269 | 4.0 | 8.0 | 0.00 | 0.00 | 0.00 | 66 | 1000.5 |
| 20260506004316 | 51 | 274 | 3.0 | 8.0 | 0.00 | 0.00 | 0.00 | 65 | 1000.3 |
| 20260506001324 | 50 | 276 | 3.0 | 7.0 | 0.00 | 0.00 | 0.00 | 68 | 1000.2 |
| 20260505235827 | 50 | 334 | 3.0 | 8.0 | 0.00 | 0.00 | 0.00 | 67 | 1000.1 |
| 20260505234327 | 51 | 281 | 5.0 | 9.0 | 0.00 | 0.00 | 0.00 | 64 | 1000.0 |
| 20260505232810 | 52 | 238 | 6.0 | 9.0 | 0.00 | 0.00 | 0.00 | 64 | 999.9 |
| 20260505231310 | 52 | 264 | 3.0 | 6.0 | 0.00 | 0.00 | 0.00 | 64 | 999.8 |
| 20260505224314 | 52 | 209 | 3.0 | 8.0 | 0.00 | 0.00 | 0.00 | 65 | 999.6 |
| 20260505221323 | 51 | 254 | 3.0 | 6.0 | 0.00 | 0.00 | 0.00 | 69 | 999.3 |
| 20260505212814 | 51 | 192 | 3.0 | 6.0 | 0.00 | 0.00 | 0.00 | 71 | 999.0 |
| 20260505205818 | 49 | 292 | 1.0 | 4.0 | 0.00 | 0.00 | 0.00 | 74 | 998.9 |
| 20260505204324 | 49 | 211 | 1.0 | 6.0 | 0.00 | 0.00 | 0.00 | 74 | 998.7 |
| 20260505202822 | 48 | 202 | 1.0 | 4.0 | 0.00 | 0.00 | 0.00 | 75 | 998.5 |
| 20260505201327 | 47 | 188 | 0.0 | 5.0 | 0.00 | 0.00 | 0.00 | 76 | 998.3 |
| 20260505195824 | 46 | 259 | 0.0 | 3.0 | 0.00 | 0.00 | 0.00 | 76 | 998.2 |
| 20260505192813 | 46 | 182 | 0.0 | 2.0 | 0.00 | 0.00 | 0.00 | 75 | 998.1 |
| 20260505185818 | 45 | 182 | 0.0 | 4.0 | 0.00 | 0.00 | 0.00 | 77 | 997.8 |
| 20260505184319 | 45 | 179 | 0.0 | 2.0 | 0.00 | 0.00 | 0.00 | 78 | 998.1 |
| 20260505182823 | 44 | 211 | 1.0 | 3.0 | 0.00 | 0.00 | 0.00 | 78 | 998.1 |
| 20260505181324 | 43 | 211 | 0.0 | 0.0 | 0.00 | 0.00 | 0.00 | 79 | 998.0 |
| 20260505172816 | 44 | 211 | 1.0 | 4.0 | 0.00 | 0.00 | 0.00 | 77 | 997.7 |
| 20260505171317 | 45 | 109 | 0.0 | 4.0 | 0.00 | 0.00 | 0.00 | 78 | 997.6 |
| 20260505165819 | 44 | 298 | 0.0 | 1.0 | 0.00 | 0.00 | 0.00 | 80 | 997.3 |
| 20260505164319 | 43 | 298 | 0.0 | 0.0 | 0.00 | 0.00 | 0.00 | 82 | 997.2 |
| 20260505162821 | 41 | 298 | 0.0 | 1.0 | 0.00 | 0.00 | 0.00 | 83 | 997.1 |
| 20260505161322 | 41 | 298 | 0.0 | 2.0 | 0.00 | 0.00 | 0.00 | 83 | 997.3 |
| 20260505152824 | 39 | 171 | 0.0 | 1.0 | 0.00 | 0.00 | 0.00 | 87 | 996.9 |
| 20260505122821 | 39 | 171 | 0.0 | 0.0 | 0.00 | 0.00 | 0.00 | 82 | 996.6 |
| 20260505121321 | 39 | 171 | 0.0 | 0.0 | 0.00 | 0.00 | 0.00 | 82 | 996.6 |
| 20260505115822 | 39 | 171 | 0.0 | 0.0 | 0.00 | 0.00 | 0.00 | 82 | 996.7 |
| 20260505114323 | 41 | 171 | 0.0 | 0.0 | 0.00 | 0.00 | 0.00 | 80 | 996.9 |
| 20260505111328 | 42 | 171 | 0.0 | 0.0 | 0.00 | 0.00 | 0.00 | 81 | 996.9 |
| 20260505101320 | 43 | 171 | 0.0 | 0.0 | 0.00 | 0.00 | 0.00 | 80 | 997.5 |
| 20260505095818 | 43 | 171 | 0.0 | 0.0 | 0.00 | 0.00 | 0.00 | 80 | 997.6 |
| 20260505094322 | 43 | 171 | 0.0 | 0.0 | 0.00 | 0.00 | 0.00 | 79 | 997.7 |
| 20260505092821 | 43 | 171 | 0.0 | 0.0 | 0.00 | 0.00 | 0.00 | 79 | 997.9 |
| 20260505091326 | 43 | 171 | 0.0 | 0.0 | 0.00 | 0.00 | 0.00 | 79 | 998.1 |
| 20260505084311 | 43 | 171 | 0.0 | 0.0 | 0.00 | 0.00 | 0.00 | 78 | 998.7 |
| 20260505082810 | 44 | 171 | 0.0 | 0.0 | 0.00 | 0.00 | 0.00 | 77 | 998.7 |
| 20260505081314 | 44 | 171 | 0.0 | 0.0 | 0.00 | 0.00 | 0.00 | 75 | 999.1 |
| 20260505075812 | 45 | 171 | 0.0 | 0.0 | 0.00 | 0.00 | 0.00 | 76 | 999.2 |
| 20260505072818 | 47 | 171 | 0.0 | 0.0 | 0.00 | 0.00 | 0.00 | 74 | 999.5 |
| 20260505071318 | 48 | 171 | 0.0 | 0.0 | 0.00 | 0.00 | 0.00 | 72 | 999.6 |
| 20260505064325 | 50 | 171 | 0.0 | 0.0 | 0.00 | 0.00 | 0.00 | 63 | 1000.0 |
| 20260505062829 | 51 | 171 | 0.0 | 3.0 | 0.00 | 0.00 | 0.00 | 62 | 1000.0 |
| 20260505061329 | 52 | 109 | 0.0 | 2.0 | 0.00 | 0.00 | 0.00 | 62 | 1000.0 |
| 20260505055810 | 52 | 142 | 1.0 | 2.0 | 0.00 | 0.00 | 0.00 | 60 | 1000.1 |
| 20260505052820 | 52 | 236 | 1.0 | 3.0 | 0.00 | 0.00 | 0.00 | 63 | 1000.3 |
| 20260505051321 | 52 | 236 | 0.0 | 2.0 | 0.00 | 0.00 | 0.00 | 62 | 1000.7 |
| 20260505041315 | 53 | 236 | 0.0 | 3.0 | 0.00 | 0.00 | 0.00 | 62 | 1001.9 |